Starlink 11441

operational
NORAD ID: 62413 Int'l Des: 2024-249 Owner: SPXS Country: US Constellation: starlink
LEOCIRCULAR

Über Starlink 11441

Beschreibung wird geladen...

Live-Position

3D-Globus wird geladen...

Nächste Überflüge

Höhenverlauf

Altitude vs Time

uPlot chart will show altitude changes over time

Zweizeiliger Elementsatz

1 62413U 24249E 25304.80559510 .00161631 00000-0 12384-2 0 9992
2 62413 43.0002 224.2460 0001715 271.0079 89.0592 15.70848078 49214
Epoch: 31. Okt. 2025 • Age: 21 hours

Aktueller Status

Höhe 358.4 km
Geschwindigkeit 7.70 km/s
Subsatellitenpunkt -16.57°S, 89.69°W
Startdatum 23. Dez. 2024
Alter 0.8 years
Typ internet

Technische Details

Klassifizierung Payload
Masse 960.00 kg
Trockenmasse 910.00 kg
Gesamtmasse 960.00 kg
Länge 0.30 m
Durchmesser 4.10 m
Spannweite 29.00 m
Form Box + pan
Hersteller SPXS
Bus-Typ Starlink V2MD
Phasenstatus In Orbit
Besitzer/Staat SPXS/US

Große Konstellationen

Loading constellations...